EZY1L LIPR-LIPR

Flight info

Callsign EZY1L
Flight time 0h 7m
Altitude 1000
Route TRAFFIC PATTERNS
Aircraft A20N/M-SDE2E3FGHIRWXY/LB1

Departure

Time 2026-04-17 15:27
Airport Federico Fellini International Airport (LIPR)

Arrival

Time 2026-04-17 15:34
Airport Federico Fellini International Airport (LIPR)
Time Latitude Longitude Altitude Speed Heading
2026-04-17 15:08 44.02247 12.61807 26 ft 0 kts 37°
2026-04-17 15:18 44.02247 12.61806 27 ft 0 kts 37°
2026-04-17 15:18 44.02245 12.61805 27 ft 2 kts 38°
2026-04-17 15:18 44.02234 12.61793 26 ft 2 kts 37°
2026-04-17 15:19 44.02223 12.61782 26 ft 2 kts 37°
2026-04-17 15:19 44.02212 12.61770 26 ft 2 kts 37°
2026-04-17 15:19 44.02204 12.61748 26 ft 3 kts 103°
2026-04-17 15:19 44.02208 12.61735 26 ft 1 kts 136°
2026-04-17 15:20 44.02211 12.61730 26 ft 0 kts 129°
2026-04-17 15:20 44.02211 12.61731 26 ft 0 kts 129°
2026-04-17 15:21 44.02209 12.61735 26 ft 2 kts 129°
2026-04-17 15:22 44.02186 12.61734 27 ft 4 kts 214°
2026-04-17 15:22 44.02157 12.61706 27 ft 6 kts 217°
2026-04-17 15:22 44.02116 12.61664 27 ft 8 kts 216°
2026-04-17 15:22 44.02056 12.61616 26 ft 11 kts 188°
2026-04-17 15:23 44.01994 12.61674 27 ft 12 kts 129°
2026-04-17 15:23 44.01943 12.61767 28 ft 13 kts 127°
2026-04-17 15:23 44.01889 12.61865 29 ft 13 kts 127°
2026-04-17 15:23 44.01835 12.61969 30 ft 14 kts 125°
2026-04-17 15:24 44.01774 12.62074 30 ft 15 kts 129°
2026-04-17 15:24 44.01707 12.62189 30 ft 16 kts 127°
2026-04-17 15:24 44.01633 12.62322 28 ft 19 kts 128°
2026-04-17 15:24 44.01558 12.62457 27 ft 12 kts 127°
2026-04-17 15:25 44.01514 12.62529 27 ft 11 kts 146°
2026-04-17 15:25 44.01446 12.62495 28 ft 12 kts 221°
2026-04-17 15:25 44.01386 12.62425 31 ft 11 kts 219°
2026-04-17 15:25 44.01369 12.62359 32 ft 8 kts 296°
2026-04-17 15:26 44.01380 12.62338 32 ft 0 kts 309°
2026-04-17 15:27 44.01384 12.62331 32 ft 10 kts 309°
2026-04-17 15:27 44.01611 12.61927 35 ft 104 kts 308°
2026-04-17 15:27 44.02157 12.60960 106 ft 168 kts 311°
2026-04-17 15:27 44.02832 12.59745 699 ft 188 kts 311°
2026-04-17 15:28 44.03567 12.58435 1174 ft 201 kts 312°
2026-04-17 15:28 44.04328 12.57086 1252 ft 204 kts 312°
2026-04-17 15:28 44.05100 12.55721 1151 ft 202 kts 312°
2026-04-17 15:28 44.05890 12.54518 1165 ft 180 kts 330°
2026-04-17 15:29 44.06904 12.54180 1021 ft 166 kts 14°
2026-04-17 15:29 44.07839 12.54797 821 ft 160 kts 34°
2026-04-17 15:29 44.08418 12.56016 690 ft 161 kts 90°
2026-04-17 15:29 44.07904 12.57232 702 ft 169 kts 144°
2026-04-17 15:30 44.07027 12.58073 892 ft 167 kts 132°
2026-04-17 15:30 44.06307 12.59167 1048 ft 168 kts 130°
2026-04-17 15:30 44.05601 12.60275 1102 ft 167 kts 128°
2026-04-17 15:30 44.04924 12.61404 1152 ft 167 kts 127°
2026-04-17 15:31 44.04235 12.62514 1208 ft 167 kts 128°
2026-04-17 15:31 44.03522 12.63645 1266 ft 167 kts 128°
2026-04-17 15:31 44.02816 12.64788 1257 ft 168 kts 127°
2026-04-17 15:31 44.02145 12.65951 1114 ft 166 kts 124°
2026-04-17 15:32 44.01512 12.67157 1014 ft 166 kts 124°
2026-04-17 15:32 44.00743 12.68147 1033 ft 171 kts 151°
2026-04-17 15:32 43.99659 12.68387 1163 ft 179 kts 186°
2026-04-17 15:32 43.98636 12.67707 1186 ft 182 kts 228°
2026-04-17 15:33 43.98363 12.66251 1020 ft 177 kts 290°
2026-04-17 15:33 43.99031 12.65160 729 ft 168 kts 329°
2026-04-17 15:33 43.99841 12.64349 540 ft 168 kts 327°
2026-04-17 15:33 44.00626 12.63452 323 ft 168 kts 322°
2026-04-17 15:34 44.01351 12.62392 77 ft 168 kts 311°
2026-04-17 15:34 44.01986 12.61253 28 ft 148 kts 308°
2026-04-17 15:34 44.02408 12.60499 23 ft 69 kts 307°
2026-04-17 15:34 44.02526 12.60284 21 ft 0 kts 307°